Tracking 18844 objects as of 21-Nov-2017
HD Live streaming from Space Station
objects crossing your sky now

ARIANE 42P R/B

Track ARIANE 42P R/B now!
10-day predictions


NORAD ID: 25667
Int'l Code: 1999-016B
Perigee: 269.5 km
Apogee: 20,541.9 km
Inclination: 4.3 °
Period: 360.4 minutes
Semi major axis: 16776 km
RCS: 21.049 m2 (large)
Launch date: April 2, 1999
Source: France (FR)
Launch site: FRENCH GUIANA (FRGUI)

Note: This is a ROCKET BODY
aabbcc
Your satellite tracking list
Your tracking list is empty




NASA's NSSDC Master Catalog

Two Line Element Set (TLE):
1 25667U 99016B   17322.66379707 +.00005466 +00000-0 +78880-3 0  9996
2 25667 004.3289 056.6374 6041837 328.4858 006.5115 03.99524208214054
Source of the keplerian elements: AFSPC